ALCOMSAT 1 (43039 NORAD) Tracking and Keplerian Element Data

This shows tracking and keplerian element data for the satellite.

Feedback or suggestion? Click here.




ElementValue
Catalog43039
NameALCOMSAT 1
Epoch Orbit680
Epoch Day282.83923045
Epoch Year2019
RAAN309.0113
Inclination0.0185
Eccentricity0.0002801
Argument of Perigee236.5119
Mean Anonmoly109.9944
Mean Motion1.00272079
Decay Rate-1.99E-06
L11 43039U 17078A 19282.83923045 -.00000199 00000-0 00000-0 0 9998
L22 43039 0.0185 309.0113 0002801 236.5119 109.9944 1.00272079 6808

Live tracking and technical data element details for ALCOMSAT 1 (NORAD 43039). ALCOMSAT 1 can be tracked NOW for your location showing map with azimuth and elevation plus other details from your city location.

Track the satellite on the map from your city or location and see movement details for azimuth, elevation, latitude, longitude, range, height, and movement on the map or in text.







IsCatalogInMostPopularTable: catalog: 43039, numindb: 314
Update: records affected: 1



GetName: 43039 ALCOMSAT 1

Hit Count: updated at: Mon, 14 Oct 2019 00:45:47 GMT